Weather History for KHKY - April, 2013

Change the Weather History Date:

Saturday, April 13, 2013

  Actual Average Record
Temperature  
Mean Temperature 60 °F -  
Max Temperature 75 °F 69 °F 86 °F (1977)
Min Temperature 46 °F 46 °F 30 °F (1975)
Degree Days  
Heating Degree Days 4    
Growing Degree Days 10 (Base 50)    
Moisture  
Dew Point 34 °F    
Average Humidity 39    
Maximum Humidity 68    
Minimum Humidity 18    
Precipitation  
Precipitation 0.00 in - - ()
Sea Level Pressure  
Sea Level Pressure 29.90 in    
Wind  
Wind Speed 5 mph (WNW)    
Max Wind Speed 12 mph    
Max Gust Speed 22 mph    
Visibility 10 miles    
Events      
Averages and records for this station are not official NWS values.
T = Trace of Precipitation, MM = Missing Value Source: NWS Daily Summary

Daily Weather History Graph

Daily Weather History Graph

Search for Another Location

Airport or City:

Trip Planner

Search our weather history database for the weather conditions in past years. The results will help you decide how hot, cold, wet, or windy it might be!

Date:

Astronomy

Apr. 13, 2013 Rise Set
Actual Time 6:55 AM EDT 7:57 PM EDT
Civil Twilight 6:28 AM EDT 8:23 PM EDT
Nautical Twilight 5:57 AM EDT 8:54 PM EDT
Astronomical Twilight 5:25 AM EDT 9:27 PM EDT
Moon 8:50 AM EDT (4/13) 11:14 PM EDT (4/13)
Length of Visible Light 13h 54m
Length of Day
13h 02m
Waxing Crescent, 10% of the Moon is Illuminated
Apr 13
Waxing Crescent
Apr 18
First Quarter
Apr 25
Full
May 2
Last Quarter
May 9
New

Hourly Weather History & Observations

Time (EDT) Temp. Dew Point Humidity Pressure Visibility Wind Dir Wind Speed Gust Speed Precip Events Conditions
12:53 AM 55.9 °F 36.0 °F 47% 29.79 in 10.0 mi NW 5.8 mph - N/A   Clear
1:53 AM 54.0 °F 36.0 °F 51% 29.81 in 10.0 mi NNW 3.5 mph - N/A   Clear
2:53 AM 55.0 °F 34.0 °F 45% 29.81 in 10.0 mi NNW 5.8 mph - N/A   Clear
3:53 AM 54.0 °F 34.0 °F 47% 29.82 in 10.0 mi Calm Calm - N/A   Clear
4:53 AM 50.0 °F 34.0 °F 54% 29.83 in 10.0 mi Calm Calm - N/A   Clear
5:53 AM 48.0 °F 36.0 °F 63% 29.85 in 10.0 mi Calm Calm - N/A   Clear
6:53 AM 46.9 °F 35.1 °F 63% 29.87 in 10.0 mi Calm Calm - N/A   Clear
7:53 AM 50.0 °F 39.9 °F 68% 29.91 in 10.0 mi Calm Calm - N/A   Clear
8:53 AM 55.9 °F 39.0 °F 53% 29.92 in 10.0 mi WNW 3.5 mph - N/A   Clear
9:53 AM 60.1 °F 39.0 °F 46% 29.94 in 10.0 mi West 5.8 mph - N/A   Clear
10:53 AM 62.1 °F 37.0 °F 39% 29.95 in 10.0 mi Variable 6.9 mph - N/A   Clear
11:53 AM 66.0 °F 37.9 °F 36% 29.95 in 10.0 mi WSW 10.4 mph - N/A   Clear
12:53 PM 69.1 °F 35.1 °F 29% 29.93 in 10.0 mi WNW 10.4 mph 17.3 mph N/A   Clear
1:53 PM 71.1 °F 34.0 °F 26% 29.92 in 10.0 mi West 9.2 mph 19.6 mph N/A   Clear
2:53 PM 71.1 °F 30.9 °F 23% 29.89 in 10.0 mi West 5.8 mph - N/A   Clear
3:53 PM 75.0 °F 28.9 °F 18% 29.87 in 10.0 mi WNW 6.9 mph - N/A   Clear
4:53 PM 75.0 °F 28.0 °F 18% 29.87 in 10.0 mi WNW 10.4 mph 21.9 mph N/A   Clear
5:53 PM 73.9 °F 28.0 °F 18% 29.88 in 10.0 mi WNW 10.4 mph 18.4 mph N/A   Clear
6:53 PM 72.0 °F 28.0 °F 20% 29.90 in 10.0 mi West 11.5 mph - N/A   Clear
7:53 PM 68.0 °F 30.0 °F 24% 29.92 in 10.0 mi NW 5.8 mph - N/A   Clear
8:53 PM 64.9 °F 30.0 °F 27% 29.94 in 10.0 mi NW 8.1 mph - N/A   Clear
9:53 PM 62.1 °F 30.9 °F 31% 29.98 in 10.0 mi West 3.5 mph - N/A   Clear
10:53 PM 57.9 °F 33.1 °F 39% 30.00 in 10.0 mi Calm Calm - N/A   Clear
11:53 PM 55.9 °F 34.0 °F 44% 29.99 in 10.0 mi Calm Calm - N/A   Clear